FW4335 Weather Reports


Display with metric or nautical units.
time (UTC)temp
F
wind
direction
speed
MPH
gust
MPH
rain 1hr
in
rain 24hr
in
rain mn
in
humidity
%
barometer
mb
20260503184535 80 22 0.0 4.0 0.00 0.00 0.00 46 1015.4
20260503181534 79 296 0.0 4.0 0.00 0.00 0.00 48 1015.7
20260503180036 77 341 0.0 3.0 0.00 0.00 0.00 49 1015.8
20260503173037 76 27 0.0 4.0 0.00 0.00 0.00 48 1016.2
20260503171530 73 24 0.0 2.0 0.00 0.00 0.00 51 1016.3
20260503081534 52 225 0.0 2.0 0.00 0.00 0.00 91 1016.5
20260503071533 53 225 1.0 3.0 0.00 0.00 0.00 89 1016.5
20260503054532 56 202 0.0 2.0 0.00 0.00 0.00 86 1016.4
20260503053030 56 202 0.0 2.0 0.00 0.00 0.00 85 1016.4
20260503051535 57 208 1.0 3.0 0.00 0.00 0.00 85 1016.3
20260503050035 58 150 0.0 2.0 0.00 0.00 0.00 84 1016.2
20260503044530 58 192 0.0 2.0 0.00 0.00 0.00 83 1016.2
20260503043106 59 202 0.0 2.0 0.00 0.00 0.00 82 1016.0
20260503034607 63 202 0.0 2.0 0.00 0.00 0.00 78 1015.1
20260503031607 66 18 0.0 3.0 0.00 0.00 0.00 77 1014.4
20260503030035 67 22 0.0 0.0 0.00 0.00 0.00 75 1014.1
20260503024535 69 28 0.0 1.0 0.00 0.00 0.00 71 1014.0
20260503023030 71 45 0.0 0.0 0.00 0.00 0.00 65 1013.8
20260503021533 72 45 0.0 0.0 0.00 0.00 0.00 60 1013.7
20260503020144 74 45 0.0 0.0 0.00 0.00 0.00 56 1013.6
20260503013032 76 337 0.0 0.0 0.00 0.00 0.00 54 1013.5
20260503010035 77 343 0.0 2.0 0.00 0.00 0.00 51 1013.4
20260503004533 81 267 0.0 4.0 0.00 0.00 0.00 41 1013.4
20260503003029 82 225 0.0 1.0 0.00 0.00 0.00 37 1013.4
20260503001532 82 185 0.0 5.0 0.00 0.00 0.00 34 1013.4
20260503000032 82 188 1.0 5.0 0.00 0.00 0.00 36 1013.5
20260502233038 84 135 2.0 6.0 0.00 0.00 0.00 35 1013.9
20260502231536 84 216 1.0 3.0 0.00 0.00 0.00 38 1014.1
20260502230033 83 191 0.0 2.0 0.00 0.00 0.00 40 1014.2
20260502224532 84 291 0.0 3.0 0.00 0.00 0.00 39 1014.5
20260502223031 83 280 0.0 5.0 0.00 0.00 0.00 40 1014.7
20260502221532 82 280 0.0 2.0 0.00 0.00 0.00 43 1014.9
20260502220032 79 279 0.0 3.0 0.00 0.00 0.00 48 1015.2
20260502214537 78 349 0.0 3.0 0.00 0.00 0.00 50 1015.4
20260502213108 77 132 1.0 6.0 0.00 0.00 0.00 52 1015.7
20260502211535 74 57 1.0 4.0 0.00 0.00 0.00 56 1015.9
20260502210034 72 19 0.0 3.0 0.00 0.00 0.00 63 1016.2
20260502201532 69 25 1.0 3.0 0.00 0.00 0.00 67 1016.6
20260502200034 68 296 0.0 2.0 0.00 0.00 0.00 71 1016.7
20260502194531 63 314 0.0 2.0 0.00 0.00 0.00 76 1016.9
20260502193031 62 337 1.0 5.0 0.00 0.00 0.00 75 1017.2
20260502191530 64 357 1.0 5.0 0.00 0.00 0.00 72 1017.5